Regional Weather Roundup
Issued by NWS Midland/Odessa, TX

Skip options and go directly to product.
Home | Oldest Version | Next Version | Current Version | All | Text Only | Save Text | Print | Product List | Glossary On

Skip product version selection by date and time.   
824
ASUS44 KMAF 261701
RWRMAF
MIDLAND AREA WEATHER ROUNDUP
NATIONAL WEATHER SERVICE MIDLAND TX
1200 PM CDT THU MAR 26 2015

...IN SOUTHWEST TEXAS AND SOUTHEAST NEW MEXICO...

CITY           SKY/WX    TMP DP  RH WIND       PRES   REMARKS
ALPINE         CLOUDY    44  34  66 NE13      30.40R WCI  38
ANDREWS        FAIR      49  28  44 N8        30.35S
ARTESIA        SUNNY     50  28  43 N7        30.38F
BIG SPRING     SUNNY     54  31  42 N16G22    30.33S
CARLSBAD       SUNNY     53  26  35 N9        30.37S
DRYDEN           N/A     58  39  49 N18G28    30.28R
FORT STOCKTON  CLOUDY    50  36  58 N15       30.36S
GUAD PASS      SUNNY     46  21  37 E33G39    30.32R WCI  36
HOBBS          SUNNY     48  25  40 N12       30.36S
MARFA          MOSUNNY   46  34  61 NE18G25   30.34R WCI  39
MIDLAND AIRPK  SUNNY     52  34  51 N9        30.33F
MIDLAND INTL   SUNNY     53  35  50 N17       30.32F
ODESSA         SUNNY     51  32  48 N15       30.33F
PECOS          MOSUNNY   53  34  49 N8G16     30.37S
PRESIDIO       FAIR      59  35  41 N10G17    30.28S
SEMINOLE       SUNNY     49  29  47 N5        30.36S
SNYDER         SUNNY     50  29  45 N12G21    30.30S
WINK           SUNNY     54  30  40 N9G20     30.34F
$$
...OTHER STATIONS IN TEXAS...

CITY           SKY/WX    TMP DP  RH WIND       PRES   REMARKS
ABILENE        SUNNY     53  34  48 N17       30.27R
AMARILLO       SUNNY     51  24  34 MISG      30.30F
AUSTIN         PTSUNNY   61  47  59 NW20G29   30.12R
BROWNSVILLE    CLOUDY    75  73  93 NW7       29.95S FOG
CORPUS CHRISTI CLOUDY    65  58  78 N25       30.01S
DALLAS FTW     MOSUNNY   57  41  55 N23       30.14S
DEL RIO        PTSUNNY   59  41  51 NW24G33   30.21R
EL PASO        SUNNY     55  28  35 SE8       30.32S
HOUSTON INT    CLOUDY    61  56  83 N17G29    30.00S
LUBBOCK        MOSUNNY   52  25  35 N9        30.31R
SAN ANGELO     SUNNY     56  39  53 N21       30.26S
SAN ANTONIO    PTSUNNY   64  46  52 N22G30    30.10R
WACO           PTSUNNY   57  45  64 N21G31    30.14R
WICHITA FALLS  NOT AVBL
$$
...OTHER LOCATIONS IN NEW MEXICO...

CITY           SKY/WX    TMP DP  RH WIND       PRES   REMARKS
ALAMAGORDO     SUNNY     55  28  35 S18       30.31S
ALBUQUERQUE    MOSUNNY   48  17  29 CALM      30.36S
CANNON AFB     NOT AVBL
CLOVIS         SUNNY     48  21  34 NW7       30.33F
HOLLOMAN AFB   NOT AVBL
ROSWELL        SUNNY     51  27  39 VRB3      30.36F
RUIDOSO        SUNNY     41  18  38 SE9       30.36F WCI  35
SANTA FE       SUNNY     44  17  33 NE5       30.34F
TRUTH OR CONSE SUNNY     54  21  27 N9        30.32S
TUCUMCARI      SUNNY     49  21  33 CALM      30.32F
$$

USA.gov is the U.S. government's official web portal to all federal, state and local government web resources and services.